Wind_Speed
5 6 7 8 13 16 16 9 5 7 9 7 13 18 9 12 14 19 28 14 11 9 12 17 19 18 16 18 19 20 25 28 31 35 36 39 43 45 38 43 37 41 44 37
3 6 7 9 10 10 13 13 7 8 8 12 16 16 14 15 18 21 7 5 3 4 7 11 16 17 18 18 23 23 31 32 34 37 40 46 47 52 49 45 51 51 39 49
3 7 6 3 4 2 8 17 17 20 19 19 23 23 21 17 19 18 14 18 2 9 9 9 12 23 25 24 26 31 34 40 44 48 53 55 57 58 59 58 58 54 53 53
8 7 5 4 4 3 6 9 14 20 26 27 26 24 27 17 18 17 26 28 12 13 15 21 18 28 32 33 31 34 39 42 47 50 53 56 58 58 58 57 56 56 54 52
6 5 5 2 3 4 8 11 13 10 11 15 17 19 24 26 26 21 23 23 30 24 21 22 23 36 35 35 36 39 40 42 45 50 53 53 55 58 58 59 57 58 54 54
6 4 5 6 6 5 8 5 10 12 11 17 23 22 24 24 21 17 23 27 27 26 20 29 37 34 38 41 46 44 41 42 43 45 47 51 53 56 57 58 61 59 56 53
4 4 7 10 8 9 6 4 8 10 12 16 21 24 21 22 20 25 30 33 35 33 36 36 33 34 37 40 40 41 42 40 43 47 50 51 53 52 53 55 56 59 60 58
5 4 5 6 7 11 9 6 5 8 12 16 20 22 25 29 31 35 36 36 36 43 41 40 40 38 33 34 39 40 41 45 44 45 46 50 54 57 55 55 55 56 58 57
6 4 6 9 7 9 8 8 11 13 14 20 22 25 27 32 32 35 37 37 43 40 42 43 43 43 42 35 33 36 39 39 44 48 49 49 52 56 58 59 60 60 59 60
9 9 7 12 9 9 9 8 9 12 16 19 20 23 26 31 35 39 40 40 40 43 44 46 48 48 47 48 44 40 40 43 45 46 49 52 54 55 59 60 59 59 60 59
11 12 9 12 13 11 12 14 15 19 20 21 24 28 29 31 33 34 35 36 40 41 44 48 52 53 54 55 54 54 54 54 54 55 56 58 59 60 59 60 60 59 57 56
12 14 19 12 17 18 15 16 17 19 21 22 24 29 30 29 31 31 32 36 40 44 48 52 55 58 59 60 59 59 58 59 60 61 62 62 61 58 58 58 60 62 58 57
13 15 17 17 17 17 18 21 21 23 25 27 29 31 30 29 29 31 34 38 42 47 51 53 55 56 57 56 55 57 59 62 64 61 52 47 45 45 46 45 44 45 46 48
14 15 17 17 18 19 21 21 21 22 25 28 29 28 27 27 28 31 35 39 44 47 50 53 54 54 52 52 54 57 60 60 48 42 44 47 48 45 41 36 41 40 39 40
14 16 18 20 20 19 19 20 19 22 26 29 28 27 26 28 31 35 39 42 45 48 51 52 51 52 53 54 55 54 48 39 42 45 45 44 40 42 40 40 37 35 34 36
13 15 18 16 17 18 18 19 21 23 26 26 27 26 27 31 35 39 43 48 51 54 55 54 53 54 54 55 50 41 37 39 45 46 44 36 38 37 35 34 28 27 26 31
12 14 14 14 16 15 15 20 25 26 25 24 25 27 32 35 40 44 48 52 55 55 55 55 56 56 51 45 40 40 41 41 40 39 36 36 40 30 30 31 27 24 23 26
12 11 10 10 12 12 16 20 22 23 24 24 26 30 34 39 44 48 53 55 56 55 53 54 50 44 40 37 36 38 37 35 33 31 32 33 34 28 24 28 25 26 24 33
11 8 6 7 9 13 18 21 21 23 24 26 31 33 37 42 45 48 50 52 51 51 48 43 40 38 35 34 32 33 33 35 29 29 29 27 29 25 23 26 26 28 25 28
10 9 8 8 9 12 18 23 25 25 26 28 31 36 40 44 46 50 52 53 54 48 43 42 39 34 33 32 29 33 35 29 27 28 25 26 27 24 24 26 27 26 25 25
11 10 10 9 11 13 17 21 26 28 30 32 35 39 43 46 53 57 59 59 53 48 45 41 37 34 34 31 29 30 30 26 26 25 22 23 24 27 27 28 29 29 28 28
13 11 12 11 13 15 18 20 24 27 31 33 36 40 45 52 56 57 56 54 53 51 45 42 38 31 30 27 27 25 22 24 25 23 21 25 27 28 28 29 30 31 29 27
12 13 13 14 15 17 19 21 24 27 30 32 36 42 49 54 55 54 55 57 56 52 45 39 33 27 23 21 21 19 18 21 22 21 24 27 28 30 30 29 27 24 25 26
14 15 16 17 17 18 20 23 25 29 32 34 40 47 52 54 53 55 57 57 53 46 38 30 24 18 15 15 14 13 16 16 18 23 29 31 31 27 28 28 26 25 21 20
15 17 16 17 19 20 23 25 29 31 32 38 45 49 50 52 53 54 57 54 54 46 31 19 10 6 7 10 10 13 14 17 20 27 28 29 29 31 30 26 23 21 21 21
16 17 17 18 20 22 25 26 30 30 33 39 43 45 48 48 50 53 50 54 52 37 20 5 3 9 10 11 12 14 16 19 24 26 27 29 31 32 27 24 24 25 24 23
Wind_Direction
280 262 250 227 231 249 237 213 149 224 256 294 312 322 338 310 301 295 311 312 323 274 285 295 313 322 331 315 304 296 293 293 290 290 287 286 276 264 257 259 241 261 269 290
304 276 250 239 226 247 227 222 224 232 247 279 291 293 303 285 287 294 211 217 88 25 358 307 306 321 316 305 301 297 294 299 297 295 295 298 300 305 305 304 307 311 308 306
286 260 257 285 319 303 232 223 236 255 255 259 270 278 273 283 272 273 264 211 48 27 14 297 302 326 325 321 309 299 291 290 289 291 293 294 296 300 304 306 308 310 312 314
236 245 249 274 293 220 236 241 248 257 255 263 267 265 282 297 294 288 310 291 17 352 332 309 305 323 320 316 310 302 294 293 293 293 293 294 296 297 299 301 303 305 308 308
267 255 257 296 310 333 312 304 307 302 262 279 273 282 293 306 307 304 313 332 326 328 298 296 298 320 319 317 309 302 298 293 294 294 294 294 295 297 298 299 299 300 302 304
259 265 264 269 290 316 329 325 307 295 272 263 276 280 291 307 310 300 305 314 318 319 312 314 323 321 321 316 308 304 299 294 294 296 297 296 295 297 298 299 299 300 299 299
271 287 275 269 300 307 325 319 302 312 293 278 281 290 301 301 302 305 306 307 309 321 329 327 321 316 311 307 307 311 307 303 302 301 301 301 300 298 297 298 298 298 299 299
242 206 295 292 313 317 332 333 325 309 305 305 300 303 305 305 310 313 316 319 326 332 327 327 321 316 313 311 308 310 308 305 302 299 298 298 298 298 298 298 298 298 298 298
216 261 291 295 325 325 327 340 330 321 323 320 318 310 308 310 315 315 320 328 328 325 326 321 319 322 322 322 314 306 305 301 301 302 302 300 298 297 297 297 297 297 296 296
225 255 266 291 302 303 317 330 317 314 318 316 314 311 310 313 318 325 332 327 328 326 322 324 324 327 324 324 323 320 313 308 307 306 303 302 300 298 296 295 294 293 293 294
251 265 271 289 298 307 321 319 323 322 322 320 317 313 317 317 321 323 323 325 323 320 323 322 322 324 325 324 324 323 320 317 314 312 309 306 303 300 299 298 297 295 292 289
249 260 274 287 293 299 304 302 318 321 317 318 318 317 321 322 321 324 324 322 322 321 320 322 323 324 323 325 325 323 321 317 315 314 312 310 307 303 299 295 292 293 292 291
249 255 268 280 286 293 302 315 319 323 324 325 318 321 322 326 326 324 322 320 318 320 321 320 319 318 319 321 320 318 316 314 312 314 317 318 318 314 309 307 304 299 296 295
252 258 266 272 274 297 305 314 323 325 318 313 316 320 321 321 319 318 316 316 316 316 315 316 316 317 318 320 317 315 312 313 319 320 321 317 315 314 309 305 312 307 302 300
257 260 263 272 285 295 305 316 319 314 309 310 315 319 321 319 316 314 315 313 314 315 315 317 318 318 321 317 315 313 314 318 317 317 316 318 320 320 320 316 313 310 313 310
260 258 262 273 287 300 313 316 311 308 311 315 316 316 314 318 320 320 319 320 319 318 320 318 317 318 319 316 319 319 317 316 317 319 320 320 326 324 324 329 327 319 314 323
258 250 260 276 285 302 314 315 315 319 319 314 312 314 320 322 323 322 321 319 319 318 319 319 320 320 319 321 322 319 317 319 321 324 327 330 327 332 338 333 326 335 326 323
249 252 263 274 292 312 309 309 317 318 317 313 308 315 319 319 324 323 320 319 320 321 319 318 317 319 321 321 319 315 319 323 326 328 333 335 332 337 347 353 359 353 330 311
251 256 268 285 298 307 300 305 314 321 327 318 316 316 319 322 323 320 318 318 318 318 318 315 317 319 318 318 318 318 327 327 330 333 339 341 343 343 343 352 354 352 358 4
271 272 289 303 308 312 312 320 326 326 322 317 318 321 323 322 319 321 322 322 324 327 324 321 318 316 316 320 323 316 330 330 338 338 335 342 354 360 349 350 354 357 355 356
275 278 292 306 315 320 325 327 326 324 323 323 324 322 323 323 323 324 326 328 332 328 320 316 316 315 314 320 314 320 331 339 341 348 348 353 357 360 354 351 347 346 346 347
264 283 295 316 320 321 328 330 327 324 322 319 320 325 329 327 327 328 331 333 328 324 318 315 315 314 314 315 317 328 336 343 357 359 0 356 359 354 351 349 344 342 345 350
282 295 306 319 324 329 327 326 323 320 316 321 325 331 329 329 332 336 337 334 331 323 318 315 313 311 315 317 328 339 344 351 359 1 0 360 358 352 347 348 351 355 352 346
290 297 307 314 320 326 327 330 327 324 327 328 331 330 332 336 337 342 340 338 333 329 322 315 312 309 313 329 347 349 0 13 1 359 4 0 354 358 359 357 357 357 11 15
286 293 309 315 323 328 332 330 328 331 331 333 333 333 337 337 345 346 344 342 337 331 322 316 315 309 356 11 14 10 17 12 2 8 4 359 1 1 5 14 24 27 26 27
289 299 312 321 323 332 331 333 333 331 332 334 332 337 339 346 352 351 352 353 348 350 353 5 102 77 54 55 47 45 27 13 11 12 10 9 10 9 23 31 34 31 29 29
Height
5884 5885 5885 5884 5882 5881 5880 5879 5879 5879 5880 5878 5877 5876 5876 5874 5873 5872 5869 5867 5863 5860 5858 5858 5855 5853 5848 5843 5842 5843 5837 5836 5827 5820 5814 5811 5801 5789 5786 5786 5783 5783 5780 5753
5884 5884 5883 5882 5882 5880 5880 5879 5879 5879 5880 5878 5873 5874 5874 5874 5871 5870 5865 5866 5864 5862 5859 5858 5857 5854 5849 5842 5836 5836 5829 5825 5819 5810 5803 5796 5787 5766 5777 5779 5769 5775 5773 5770
5883 5884 5883 5881 5880 5879 5878 5878 5877 5876 5877 5875 5873 5871 5870 5873 5871 5871 5866 5865 5862 5858 5859 5860 5855 5851 5847 5841 5836 5830 5826 5819 5812 5803 5793 5789 5786 5780 5772 5766 5760 5760 5758 5757
5883 5882 5881 5880 5880 5878 5877 5875 5875 5873 5873 5871 5872 5869 5863 5869 5869 5868 5862 5858 5851 5853 5851 5852 5848 5846 5843 5837 5830 5822 5816 5811 5803 5797 5789 5782 5776 5771 5764 5760 5756 5753 5752 5751
5882 5881 5881 5879 5879 5878 5877 5876 5874 5873 5871 5870 5869 5868 5862 5863 5861 5859 5858 5852 5850 5848 5846 5843 5842 5841 5834 5826 5820 5814 5809 5802 5795 5787 5778 5773 5767 5759 5755 5751 5750 5747 5747 5743
5880 5880 5879 5878 5878 5876 5876 5874 5873 5872 5871 5869 5865 5864 5862 5859 5856 5856 5851 5848 5848 5846 5844 5840 5837 5832 5824 5815 5808 5803 5798 5792 5785 5779 5772 5764 5759 5753 5748 5743 5736 5734 5734 5735
5879 5878 5878 5877 5877 5876 5876 5875 5872 5871 5868 5867 5863 5860 5858 5856 5854 5850 5848 5845 5841 5837 5835 5831 5828 5824 5817 5808 5801 5792 5786 5782 5776 5769 5760 5754 5748 5743 5738 5734 5729 5722 5716 5715
5878 5878 5877 5877 5877 5876 5874 5873 5871 5868 5866 5864 5860 5858 5853 5847 5846 5843 5839 5836 5831 5827 5823 5819 5815 5810 5807 5802 5793 5785 5779 5774 5768 5761 5755 5746 5738 5732 5726 5721 5718 5712 5705 5700
5876 5876 5876 5874 5875 5875 5873 5871 5870 5867 5863 5860 5858 5854 5850 5845 5842 5837 5834 5829 5824 5819 5813 5809 5802 5796 5794 5794 5789 5781 5774 5766 5758 5751 5746 5740 5732 5723 5717 5710 5704 5698 5693 5687
5873 5873 5874 5872 5874 5873 5872 5871 5869 5866 5862 5858 5855 5852 5847 5841 5837 5831 5826 5821 5817 5812 5806 5798 5792 5788 5782 5777 5774 5771 5764 5756 5749 5742 5735 5728 5721 5714 5705 5698 5693 5687 5682 5677
5870 5870 5873 5871 5870 5869 5869 5867 5865 5862 5860 5856 5851 5848 5845 5841 5837 5832 5825 5819 5813 5807 5800 5793 5786 5779 5771 5765 5760 5754 5748 5742 5736 5729 5722 5715 5707 5700 5692 5684 5676 5671 5668 5665
5868 5868 5865 5870 5868 5866 5866 5864 5863 5862 5858 5853 5849 5846 5842 5837 5831 5827 5822 5815 5808 5802 5795 5787 5778 5771 5763 5756 5750 5742 5736 5728 5720 5713 5706 5698 5691 5684 5677 5670 5664 5656 5650 5647
5867 5866 5865 5866 5865 5863 5863 5862 5860 5856 5851 5848 5845 5841 5835 5831 5827 5822 5817 5811 5804 5797 5789 5782 5774 5767 5759 5752 5744 5734 5725 5716 5709 5702 5693 5685 5677 5670 5665 5658 5651 5645 5640 5634
5864 5863 5863 5863 5860 5861 5860 5858 5856 5852 5848 5844 5840 5836 5832 5828 5824 5818 5812 5807 5801 5794 5786 5778 5770 5762 5753 5744 5734 5725 5715 5707 5699 5692 5685 5677 5668 5661 5655 5648 5642 5635 5629 5623
5862 5861 5860 5859 5857 5858 5857 5855 5853 5849 5844 5840 5836 5832 5827 5822 5818 5813 5808 5802 5795 5788 5779 5771 5762 5752 5744 5734 5725 5716 5706 5699 5691 5684 5676 5669 5661 5653 5645 5638 5631 5625 5620 5614
5858 5858 5857 5857 5855 5855 5853 5850 5848 5845 5841 5835 5831 5827 5823 5818 5812 5805 5798 5790 5783 5775 5767 5759 5751 5743 5734 5724 5715 5706 5698 5691 5684 5676 5668 5660 5654 5647 5638 5629 5622 5617 5613 5608
5856 5856 5855 5854 5852 5852 5851 5847 5843 5839 5836 5832 5826 5820 5815 5810 5805 5798 5790 5781 5773 5765 5757 5747 5737 5729 5721 5713 5705 5697 5690 5684 5676 5668 5661 5654 5645 5639 5634 5624 5617 5612 5607 5603
5852 5852 5853 5852 5850 5849 5846 5844 5841 5837 5833 5828 5823 5818 5813 5807 5800 5790 5780 5771 5763 5755 5746 5738 5729 5720 5713 5705 5697 5690 5683 5677 5669 5663 5657 5649 5641 5634 5629 5623 5615 5610 5606 5600
5850 5849 5850 5850 5848 5847 5843 5841 5839 5835 5831 5823 5818 5814 5808 5801 5794 5785 5776 5766 5757 5747 5738 5729 5721 5713 5705 5698 5692 5684 5677 5670 5664 5659 5653 5647 5639 5632 5627 5621 5615 5609 5604 5597
5846 5847 5848 5847 5846 5844 5839 5834 5831 5829 5826 5820 5815 5808 5802 5795 5787 5778 5767 5757 5746 5736 5727 5719 5711 5704 5697 5691 5685 5678 5673 5666 5661 5656 5650 5645 5639 5632 5626 5619 5614 5609 5604 5598
5845 5845 5844 5843 5841 5840 5836 5832 5827 5824 5822 5813 5808 5802 5796 5786 5776 5765 5753 5742 5734 5726 5716 5709 5702 5697 5690 5686 5679 5675 5669 5664 5659 5654 5648 5643 5638 5631 5626 5619 5613 5607 5602 5596
5843 5843 5841 5840 5838 5837 5833 5830 5825 5820 5814 5808 5803 5796 5787 5777 5767 5756 5745 5734 5723 5714 5705 5699 5694 5689 5685 5680 5675 5671 5667 5662 5658 5653 5648 5643 5638 5632 5625 5618 5612 5605 5600 5594
5841 5840 5838 5838 5835 5832 5829 5825 5821 5816 5811 5805 5798 5790 5781 5771 5760 5747 5736 5723 5712 5700 5693 5688 5685 5682 5679 5676 5672 5669 5665 5663 5659 5654 5649 5644 5637 5631 5625 5618 5611 5605 5600 5595
5837 5836 5834 5834 5832 5829 5825 5821 5816 5811 5805 5799 5793 5784 5774 5763 5752 5741 5727 5714 5701 5689 5681 5677 5676 5675 5675 5674 5671 5668 5667 5664 5660 5656 5650 5644 5638 5631 5624 5617 5611 5606 5601 5596
5834 5832 5832 5830 5827 5824 5820 5816 5811 5806 5800 5794 5787 5777 5768 5758 5747 5734 5722 5707 5691 5677 5670 5669 5670 5671 5673 5673 5671 5670 5669 5666 5662 5658 5652 5645 5638 5631 5624 5618 5613 5609 5604 5600
5829 5828 5827 5825 5822 5818 5815 5812 5807 5802 5797 5792 5784 5775 5764 5754 5743 5732 5718 5703 5685 5669 5662 5664 5668 5672 5674 5675 5674 5674 5672 5670 5665 5660 5654 5648 5640 5632 5626 5621 5618 5613 5609 5604